Change the Weather History Date:

Saturday, November 26, 2011

  Actual Average Record
Temperature  
Mean Temperature 56 °F -  
Max Temperature 66 °F 60 °F 71 °F (2006)
Min Temperature 46 °F 45 °F 37 °F (2013)
Degree Days  
Heating Degree Days 9    
Growing Degree Days 6 (Base 50)    
Moisture  
Dew Point 50 °F    
Average Humidity 79    
Maximum Humidity 94    
Minimum Humidity 52    
Precipitation  
Precipitation 0.00 in 0.07 in - ()
Sea Level Pressure  
Sea Level Pressure 30.30 in    
Wind  
Wind Speed 6 mph ()    
Max Wind Speed 9 mph    
Max Gust Speed -    
Visibility 6.0 miles    
Events      
Averages and records for this station are not official NWS values.
T = Trace of Precipitation, MM = Missing Value Source: Averaged Metar Reports

Daily Weather History Graph

Daily Weather History Graph

Search for Another Location

Airport or City:

Trip Planner

Search our weather history database for the weather conditions in past years. The results will help you decide how hot, cold, wet, or windy it might be!

Date:

Astronomy

Nov. 26, 2011 Rise Set
Actual Time 7:18 AM CET 5:02 PM CET
Civil Twilight 6:49 AM CET 5:32 PM CET
Nautical Twilight 6:16 AM CET 6:05 PM CET
Astronomical Twilight 5:44 AM CET 6:37 PM CET
Moon 8:32 AM CET (11/26) 6:16 PM CET (11/26)
Length of Visible Light 10h 42m
Length of Day
9h 44m
New Moon, 2% of the Moon is Illuminated
Nov 26
New Moon
Dec 2
First Quarter
Dec 10
Full
Dec 18
Last Quarter
Dec 24
New

Hourly Weather History & Observations

Time (CET) Temp. Windchill Dew Point Humidity Pressure Visibility Wind Dir Wind Speed Gust Speed Precip Events Conditions
12:15 AM 53.6 °F - 51.8 °F 94% 30.27 in 5.0 mi NW 4.6 mph - N/A   Partly Cloudy
12:45 AM 53.6 °F - 50.0 °F 88% 30.27 in 6.2 mi NNW 5.8 mph - N/A   Partly Cloudy
12:55 AM 53.6 °F - 50.0 °F 88% 30.27 in 6.2 mi NNW 5.8 mph - N/A   Partly Cloudy
1:00 AM 53 °F - 50 °F 87% 30.30 in 6 mi NNW 5.8 mph - -   Scattered Clouds
1:15 AM 53.6 °F - 50.0 °F 88% 30.27 in 6.2 mi NNW 3.5 mph - N/A   Partly Cloudy
1:45 AM 51.8 °F - 50.0 °F 94% 30.27 in 5.0 mi NW 5.8 mph - N/A   Partly Cloudy
1:55 AM 51.8 °F - 50.0 °F 94% 30.27 in 5.0 mi NW 5.8 mph - N/A   Partly Cloudy
2:15 AM 51.8 °F - 48.2 °F 88% 30.27 in 6.2 mi NW 6.9 mph - N/A   Partly Cloudy
2:45 AM 50.0 °F - 46.4 °F 87% 30.27 in 6.2 mi NW 9.2 mph - N/A   Partly Cloudy
3:15 AM 50.0 °F - 46.4 °F 87% 30.27 in 6.2 mi NW 9.2 mph - N/A   Partly Cloudy
3:45 AM 50.0 °F - 46.4 °F 87% 30.27 in 5.0 mi NW 5.8 mph - N/A   Partly Cloudy
3:55 AM 50.0 °F - 46.4 °F 87% 30.27 in 5.0 mi NW 5.8 mph - N/A   Partly Cloudy
4:00 AM 50 °F - 47 °F 86% 30.28 in 5 mi NW 5.8 mph - -   Mist
4:15 AM 50.0 °F - 48.2 °F 94% 30.27 in 5.0 mi NW 5.8 mph - N/A   Partly Cloudy
4:45 AM 50.0 °F - 44.6 °F 82% 30.27 in 5.0 mi NNW 4.6 mph - N/A   Partly Cloudy
4:55 AM 50.0 °F - 44.6 °F 82% 30.27 in 5.0 mi NNW 4.6 mph - N/A   Partly Cloudy
5:15 AM 50.0 °F - 44.6 °F 82% 30.27 in 5.0 mi NNW 2.3 mph - N/A   Partly Cloudy
5:45 AM 48.2 °F - 44.6 °F 87% 30.27 in 5.0 mi NNW 8.1 mph - N/A   Partly Cloudy
5:55 AM 48.2 °F - 44.6 °F 87% 30.27 in 5.0 mi NNW 8.1 mph - N/A   Partly Cloudy
6:15 AM 48.2 °F - 44.6 °F 87% 30.27 in 5.0 mi NNW 5.8 mph - N/A   Partly Cloudy
6:45 AM 46.4 °F 43.5 °F 41.0 °F 81% 30.27 in 5.0 mi NNW 5.8 mph - N/A   Partly Cloudy
6:55 AM 46.4 °F 43.5 °F 41.0 °F 81% 30.27 in 5.0 mi NNW 5.8 mph - N/A   Partly Cloudy
7:00 AM 47 °F - 41 °F 73% 30.29 in 5 mi NNW 5.8 mph - -   Mist
7:15 AM 46.4 °F 43.5 °F 41.0 °F 81% 30.27 in 5.0 mi NNW 5.8 mph - N/A   Partly Cloudy
7:45 AM 46.4 °F 44.3 °F 41.0 °F 81% 30.30 in 5.6 mi NW 4.6 mph - N/A   Partly Cloudy
7:55 AM 46.4 °F 44.3 °F 41.0 °F 81% 30.30 in 5.6 mi NW 4.6 mph - N/A   Partly Cloudy
8:15 AM 46.4 °F 42.9 °F 41.0 °F 81% 30.30 in 5.0 mi NW 6.9 mph - N/A   Partly Cloudy
8:45 AM 48.2 °F - 42.8 °F 82% 30.30 in 5.0 mi NW 8.1 mph - N/A   Partly Cloudy
8:55 AM 48.2 °F - 42.8 °F 82% 30.30 in 5.0 mi NW 8.1 mph - N/A   Partly Cloudy
9:15 AM 51.8 °F - 48.2 °F 88% 30.33 in 6.2 mi WNW 8.1 mph - N/A   Partly Cloudy
9:45 AM 53.6 °F - 51.8 °F 94% 30.33 in 6.2 mi WNW 6.9 mph - N/A   Partly Cloudy
9:55 AM 53.6 °F - 51.8 °F 94% 30.33 in 6.2 mi WNW 6.9 mph - N/A   Partly Cloudy
10:00 AM 54 °F - 51 °F 87% 30.34 in 7 mi WNW 6.9 mph - -   Scattered Clouds
10:15 AM 55.4 °F - 53.6 °F 94% 30.33 in 6.2 mi WNW 6.9 mph - N/A   Partly Cloudy
10:45 AM 57.2 °F - 55.4 °F 94% 30.33 in 6.2 mi WNW 8.1 mph - N/A   Partly Cloudy
10:55 AM 57.2 °F - 55.4 °F 94% 30.33 in 6.2 mi WNW 8.1 mph - N/A   Partly Cloudy
11:15 AM 60.8 °F - 57.2 °F 88% 30.30 in 6.2 mi West 8.1 mph - N/A   Partly Cloudy
11:45 AM 60.8 °F - 57.2 °F 88% 30.30 in 6.2 mi WNW 8.1 mph - N/A   Partly Cloudy
11:55 AM 60.8 °F - 57.2 °F 88% 30.30 in 6.2 mi WNW 8.1 mph - N/A   Partly Cloudy
12:15 PM 62.6 °F - 57.2 °F 82% 30.30 in 6.2 mi West 6.9 mph - N/A   Partly Cloudy
12:45 PM 64.4 °F - 59.0 °F 83% 30.30 in 6.2 mi West 4.6 mph - N/A   Partly Cloudy
12:55 PM 64.4 °F - 59.0 °F 83% 30.30 in 6.2 mi West 4.6 mph - N/A   Partly Cloudy
1:00 PM 64 °F - 59 °F 78% 30.31 in 9 mi West 4.6 mph - -   Scattered Clouds
1:15 PM 66.2 °F - 59.0 °F 78% 30.30 in 6.2 mi WSW 4.6 mph - N/A   Partly Cloudy
1:45 PM 66.2 °F - 59.0 °F 78% 30.30 in 6.2 mi South 4.6 mph - N/A   Partly Cloudy
1:55 PM 66.2 °F - 59.0 °F 78% 30.30 in 6.2 mi South 4.6 mph - N/A   Partly Cloudy
2:15 PM 66.2 °F - 55.4 °F 68% 30.27 in 6.2 mi South 5.8 mph - N/A   Partly Cloudy
2:45 PM 66.2 °F - 53.6 °F 64% 30.27 in 6.2 mi SSE 8.1 mph - N/A   Partly Cloudy
2:55 PM 66.2 °F - 53.6 °F 64% 30.27 in 6.2 mi SSE 8.1 mph - N/A   Partly Cloudy
3:15 PM 66.2 °F - 51.8 °F 60% 30.27 in 6.2 mi SSE 8.1 mph - N/A   Partly Cloudy
3:45 PM 64.4 °F - 51.8 °F 64% 30.27 in 6.2 mi SSE 8.1 mph - N/A   Partly Cloudy
3:55 PM 64.4 °F - 51.8 °F 64% 30.27 in 6.2 mi SSE 8.1 mph - N/A   Partly Cloudy
4:00 PM 65 °F - 51 °F 52% 30.30 in 9 mi SSE 8.1 mph - -   Scattered Clouds
4:15 PM 64.4 °F - 50.0 °F 59% 30.30 in 6.2 mi SSE 8.1 mph - N/A   Partly Cloudy
4:45 PM 64.4 °F - 51.8 °F 64% 30.30 in 6.2 mi SSE 8.1 mph - N/A   Partly Cloudy
4:55 PM 64.4 °F - 51.8 °F 64% 30.30 in 6.2 mi SSE 8.1 mph - N/A   Partly Cloudy
5:15 PM 62.6 °F - 51.8 °F 68% 30.30 in 6.2 mi ENE 8.1 mph - N/A   Scattered Clouds
5:45 PM 62.6 °F - 51.8 °F 68% 30.30 in 6.2 mi SE 8.1 mph - N/A   Scattered Clouds
5:55 PM 62.6 °F - 51.8 °F 68% 30.30 in 6.2 mi SE 8.1 mph - N/A   Scattered Clouds
6:15 PM 62.6 °F - 51.8 °F 68% 30.30 in 6.2 mi SSE 8.1 mph - N/A   Scattered Clouds
6:45 PM 62.6 °F - 51.8 °F 68% 30.30 in 6.2 mi East 8.1 mph - N/A   Scattered Clouds
6:55 PM 62.6 °F - 51.8 °F 68% 30.30 in 6.2 mi East 8.1 mph - N/A   Scattered Clouds
7:00 PM 62 °F - 52 °F 61% 30.32 in 7 mi East 8.1 mph - -   Partly Cloudy
7:15 PM 60.8 °F - 51.8 °F 72% 30.33 in 6.2 mi East 9.2 mph - N/A   Scattered Clouds
7:45 PM 60.8 °F - 51.8 °F 72% 30.30 in 6.2 mi East 8.1 mph - N/A   Partly Cloudy
7:55 PM 60.8 °F - 51.8 °F 72% 30.30 in 6.2 mi East 8.1 mph - N/A   Partly Cloudy
8:15 PM 60.8 °F - 51.8 °F 72% 30.33 in 6.2 mi East 6.9 mph - N/A   Partly Cloudy
8:45 PM 59.0 °F - 51.8 °F 77% 30.33 in 6.2 mi ENE 4.6 mph - N/A   Partly Cloudy
8:55 PM 59.0 °F - 51.8 °F 77% 30.33 in 6.2 mi ENE 4.6 mph - N/A   Partly Cloudy
9:15 PM 57.2 °F - 48.2 °F 72% 30.33 in 6.2 mi ENE 4.6 mph - N/A   Partly Cloudy
9:45 PM 57.2 °F - 48.2 °F 72% 30.33 in 6.2 mi ENE 2.3 mph - N/A   Partly Cloudy
9:55 PM 57.2 °F - 48.2 °F 72% 30.33 in 6.2 mi ENE 2.3 mph - N/A   Partly Cloudy
10:00 PM 58 °F - 48 °F 61% 30.34 in 9 mi ENE 2.3 mph - -   Scattered Clouds
10:15 PM 55.4 °F - 46.4 °F 72% 30.33 in 6.2 mi NNW 5.8 mph - N/A   Partly Cloudy
10:45 PM 55.4 °F - 46.4 °F 72% 30.33 in 6.2 mi WNW 5.8 mph - N/A   Partly Cloudy
11:45 PM 53.6 °F - 46.4 °F 77% 30.33 in 6.2 mi NW 5.8 mph - N/A   Partly Cloudy
11:55 PM 53.6 °F - 46.4 °F 77% 30.33 in 6.2 mi NW 5.8 mph - N/A   Partly Cloudy